Dewpoint
48 47 47 46 47 46 45 46 46 46 46 46 46 46 46 46 45 46 46 47 47 47 47 45 46 47 45 45 46 45 46 40 42 40 40 40 43 47 49 52 54 55 55 52 51 42 32 34 29 26 29 27 27 22 23 22 21 18 16 15 13 11 8 9 8 9 10 9 10 11 12 11 11 11 11 8 11 11 45 44 58 63 63 63 63 63 64 64
47 48 48 47 47 47 46 46 49 50 48 47 46 45 45 46 46 46 45 45 45 46 47 47 45 46 46 45 46 47 43 41 38 38 39 43 45 48 51 53 53 55 56 53 48 40 33 32 26 26 26 21 28 20 24 21 22 15 18 16 8 11 9 10 10 11 10 9 9 10 12 11 10 10 8 6 5 13 29 41 58 57 62 63 63 63 63 64
47 47 47 46 47 46 47 47 49 48 49 48 45 46 45 44 45 45 47 46 46 45 45 44 45 45 46 45 46 46 42 35 39 32 34 50 51 53 51 50 51 56 55 49 47 38 33 31 25 26 25 18 25 20 22 18 21 17 16 11 10 11 11 12 11 11 11 12 10 10 11 11 10 10 8 5 5 8 17 30 47 54 54 62 62 63 63 63
47 47 47 47 46 47 47 48 48 48 49 49 47 46 46 45 45 45 45 45 46 46 46 46 45 44 46 46 46 41 37 40 28 27 48 51 49 49 49 49 49 51 53 46 43 38 38 29 26 25 25 19 23 25 20 20 19 18 15 11 9 12 11 12 12 12 10 10 9 9 11 9 8 9 6 6 4 3 3 23 16 36 51 62 62 62 63 63
47 48 48 48 47 47 48 48 48 48 49 48 48 47 46 46 45 46 46 46 46 45 45 46 46 44 44 46 44 38 36 21 15 45 49 51 50 48 48 48 49 43 49 45 43 40 35 34 26 22 23 20 23 24 21 20 20 20 16 14 14 14 9 13 12 12 11 11 9 10 8 7 9 6 6 6 5 4 5 5 32 30 37 61 62 62 62 63
48 48 48 48 48 48 48 48 48 48 48 48 47 48 48 46 47 47 46 46 45 45 45 45 45 45 44 46 39 36 26 -14 42 46 51 51 49 46 46 47 48 39 48 45 39 36 31 30 25 21 20 19 21 18 23 20 22 13 19 17 17 12 9 13 14 13 11 10 9 9 9 10 8 10 9 6 4 7 10 9 22 35 40 58 62 62 62 62
47 48 48 48 48 48 48 48 48 48 47 48 48 48 47 47 48 47 47 47 46 46 45 45 45 45 45 44 39 37 26 19 30 37 46 48 47 45 47 44 44 36 37 41 38 33 31 29 26 22 20 19 19 19 22 22 23 18 12 21 16 17 12 18 14 15 10 10 10 10 13 10 10 7 10 6 7 9 10 15 17 33 57 61 61 62 62 62
47 48 48 48 48 48 48 47 48 47 48 48 48 48 48 47 47 48 46 47 46 46 45 45 45 46 45 40 36 33 33 30 33 31 40 44 38 36 41 38 36 35 34 36 36 36 31 29 26 22 20 17 18 19 20 22 22 19 17 21 22 21 17 18 18 20 19 17 15 14 12 11 11 10 11 10 9 10 12 26 40 61 61 61 61 62 62 62
48 47 47 48 48 48 48 48 48 48 47 48 48 48 48 48 49 49 47 48 47 46 46 45 45 44 45 40 36 33 29 33 33 33 37 33 31 29 32 35 34 33 34 36 36 36 33 29 28 22 20 19 18 17 20 18 16 21 21 21 21 21 21 20 20 20 21 21 21 20 17 17 16 13 13 12 11 11 16 57 58 61 61 62 62 62 62 62
48 48 48 48 48 48 48 48 47 48 48 48 48 48 48 48 48 48 48 48 47 47 46 45 44 44 41 39 35 30 29 30 33 36 34 34 33 30 28 31 30 31 32 34 35 36 34 32 28 28 23 20 19 17 20 17 12 18 21 21 20 20 21 21 20 19 17 18 20 19 19 18 18 16 11 16 15 25 44 49 61 60 60 61 62 62 63 63
47 47 47 47 49 48 48 48 48 48 48 48 48 48 48 48 48 48 48 48 47 48 46 46 44 43 40 39 33 29 32 31 36 36 35 35 34 31 27 27 30 29 32 33 33 36 36 35 34 31 25 20 20 18 20 18 17 17 18 20 20 20 20 20 21 21 18 17 18 17 16 17 18 16 15 14 46 56 46 57 60 60 60 61 62 62 63 63
47 48 48 48 48 48 48 48 48 48 48 48 48 48 48 48 48 48 49 48 48 47 46 46 44 41 41 39 36 31 34 35 35 35 36 36 34 33 32 30 29 27 29 25 28 34 34 35 33 32 23 24 16 16 17 20 19 18 18 14 17 18 18 19 18 19 20 18 15 17 15 13 14 14 16 17 43 57 45 54 60 60 61 62 62 62 63 63
48 48 48 48 47 47 48 48 48 48 48 48 48 48 48 48 49 49 49 48 47 46 46 45 43 43 42 35 34 35 36 36 35 36 36 35 35 35 34 33 33 33 29 24 24 35 36 35 34 32 31 27 22 12 18 23 18 18 17 15 14 13 14 16 18 18 17 18 15 14 5 4 7 14 15 16 26 55 55 51 55 60 61 61 62 62 62 63
48 47 48 48 47 47 47 48 48 48 48 48 48 48 49 49 49 49 49 48 48 47 46 46 42 42 40 34 34 35 36 36 35 34 34 35 34 33 35 36 36 36 36 32 30 33 34 36 35 34 32 28 24 28 23 22 19 14 15 15 12 12 11 13 17 18 15 16 16 15 9 5 7 13 15 15 31 45 44 48 54 59 60 61 62 62 62 63
48 48 47 48 48 48 48 47 48 48 48 48 48 48 48 49 49 49 49 48 48 48 46 44 42 41 36 33 35 35 43 39 37 36 36 35 32 31 31 33 32 33 35 35 34 36 35 35 34 30 28 30 29 25 20 20 18 15 11 10 12 8 9 11 15 17 13 15 16 15 14 11 12 12 14 16 32 43 38 51 54 59 59 61 62 62 62 62
48 46 47 48 47 48 47 48 48 47 48 47 48 48 48 49 49 49 48 47 47 46 42 41 41 37 33 27 29 34 31 35 33 36 37 36 32 29 30 32 35 34 33 33 34 34 34 33 29 29 27 28 26 23 18 18 18 16 9 12 11 10 8 5 11 15 15 14 15 14 12 12 12 14 15 15 29 44 41 52 57 58 60 62 62 63 63 62
47 47 47 48 48 47 47 47 47 48 47 47 48 48 48 48 48 48 47 45 44 43 40 35 40 40 30 31 30 26 27 29 30 30 35 35 33 31 32 32 32 34 34 34 34 34 33 31 30 26 26 24 24 21 14 14 16 16 13 12 11 9 9 4 9 12 14 12 12 14 11 11 12 14 17 30 26 43 41 51 55 58 60 61 62 63 63 62
47 46 47 47 48 47 47 47 48 48 47 48 48 48 46 47 47 45 43 43 42 42 41 42 40 39 33 35 31 30 30 29 29 29 29 30 34 33 31 30 33 34 34 33 35 32 32 29 28 24 24 23 22 21 14 10 12 19 15 13 10 10 10 5 3 8 12 12 9 13 12 9 11 12 13 13 18 36 38 48 55 57 60 61 62 63 63 63
47 47 47 47 47 47 47 48 49 47 48 48 48 46 45 44 42 42 41 40 33 32 26 32 34 18 10 25 28 30 30 29 29 30 28 27 31 33 34 33 33 34 29 25 28 29 29 26 26 24 21 22 20 20 15 12 11 16 14 12 9 9 8 6 4 8 11 11 9 9 11 11 11 10 12 15 16 27 36 50 56 58 58 60 62 62 63 63
47 47 47 47 47 47 47 47 48 48 48 46 43 41 37 33 33 34 38 38 32 27 24 24 30 25 25 26 27 29 31 30 29 29 28 28 36 34 33 33 32 34 27 21 27 28 28 25 23 22 21 20 20 20 15 16 12 14 14 12 8 6 8 9 8 7 10 10 10 9 11 11 11 12 13 13 26 29 44 52 56 57 59 61 62 62 63 63
48 47 47 47 47 47 47 47 48 48 48 45 41 36 30 32 27 24 33 32 32 31 30 30 30 30 28 29 30 30 29 29 29 28 28 37 29 34 32 32 31 28 29 24 27 28 27 25 23 22 21 21 20 19 17 17 15 12 13 12 10 7 5 8 8 8 8 11 8 12 10 10 11 12 13 14 26 25 38 50 54 56 58 60 60 61 61 63
47 47 47 45 45 46 47 47 47 48 47 44 39 36 35 35 35 36 37 29 31 32 32 32 31 31 32 32 32 33 32 30 31 30 30 29 27 25 28 30 29 24 29 25 25 26 25 24 24 22 21 21 21 19 17 17 14 13 11 12 11 9 8 8 9 9 8 7 6 10 9 10 12 12 13 17 21 28 37 47 54 56 58 60 60 61 61 62
44 44 44 45 46 46 47 47 47 47 44 40 39 38 37 37 41 42 40 36 32 33 31 31 31 31 31 32 33 33 30 29 28 28 28 30 27 25 29 29 29 26 26 24 23 25 24 23 24 22 22 20 20 18 16 15 18 15 12 13 9 10 7 5 7 9 8 9 7 13 8 10 13 16 19 21 19 28 43 47 54 57 57 58 59 60 61 61
44 45 46 46 46 46 46 47 47 43 41 40 40 39 39 39 42 41 38 30 25 26 30 30 31 31 30 30 31 32 30 29 29 26 30 28 26 25 27 30 29 26 24 23 23 23 23 23 23 22 21 20 19 19 16 15 14 19 13 10 9 9 9 7 5 10 11 8 11 11 12 11 14 12 12 27 34 40 48 54 57 59 59 60 60 60 61 61
45 45 46 46 45 46 47 47 43 40 42 41 39 40 41 41 42 42 36 29 27 28 32 29 31 30 31 32 31 29 31 30 29 27 29 27 27 24 25 31 28 25 24 24 23 23 22 21 23 22 20 20 19 18 16 14 12 16 18 13 9 8 8 8 8 7 8 9 8 7 7 9 17 13 11 37 36 34 49 51 53 56 59 60 60 60 60 61
46 46 46 46 46 46 47 42 41 41 42 40 37 40 42 42 45 44 33 25 18 19 23 18 27 23 31 26 29 28 29 24 28 29 28 28 30 25 29 29 29 24 26 25 23 23 22 21 22 21 20 19 19 18 17 14 10 15 15 17 14 10 8 7 7 7 7 7 9 11 7 12 16 14 16 28 35 30 50 51 51 55 57 57 58 59 59 60
46 45 46 46 46 46 43 38 42 42 39 36 39 41 41 42 45 38 26 18 15 22 20 28 25 28 29 26 28 27 17 14 22 28 28 29 29 31 28 26 29 27 27 26 25 21 23 21 21 21 20 19 18 18 18 14 10 9 16 16 16 14 12 9 7 7 9 16 14 12 7 8 8 11 43 42 37 36 45 50 52 54 56 57 58 58 59 59
46 46 45 45 45 46 44 45 41 39 39 38 42 42 42 43 42 40 23 11 10 29 23 31 31 37 29 33 26 22 20 24 20 23 28 28 29 26 27 27 26 24 26 25 19 20 24 20 20 21 20 19 18 18 19 16 10 11 16 16 16 15 15 10 8 8 12 10 6 11 10 9 8 15 41 42 29 38 39 46 49 52 54 56 57 58 58 59
45 45 45 46 46 46 45 43 41 40 41 42 42 43 43 43 38 26 17 10 25 24 32 27 39 35 33 36 33 30 27 26 24 24 27 27 27 25 26 28 28 25 25 24 21 19 23 22 19 21 20 19 20 20 19 16 12 14 15 15 15 14 12 11 10 9 11 11 11 8 8 6 7 13 25 41 30 31 37 40 45 49 52 55 57 57 58 58
46 45 45 46 45 44 45 46 43 43 43 43 43 43 43 40 32 22 14 10 31 22 31 32 32 31 32 29 29 31 29 26 25 24 26 23 23 25 24 27 28 25 24 24 22 19 19 26 23 20 20 20 21 20 19 17 13 15 14 9 11 12 13 15 14 13 14 11 11 7 8 5 5 12 18 34 31 33 33 38 42 46 50 52 55 56 57 57
45 45 45 46 44 43 43 41 42 44 45 44 43 43 40 34 24 16 11 15 26 25 31 32 29 35 31 29 27 30 29 27 24 24 23 24 23 23 23 24 28 24 24 24 23 22 22 21 22 19 22 21 21 19 20 18 15 13 12 6 8 12 14 14 14 14 11 9 9 8 7 5 7 11 16 33 39 35 31 33 37 42 45 48 52 54 56 57
45 45 45 44 44 45 41 40 42 44 44 45 43 40 34 21 23 14 14 30 20 28 28 27 32 32 30 31 30 28 27 24 24 24 21 21 22 21 22 22 24 21 21 22 21 22 21 19 20 20 24 21 20 19 18 18 13 13 12 10 5 7 13 8 10 9 9 9 10 10 7 6 6 13 16 23 28 37 38 27 34 40 42 47 51 53 55 57
44 45 45 44 44 44 43 43 44 45 45 45 40 37 28 19 13 18 18 26 21 28 26 33 30 30 30 30 29 29 29 24 25 23 22 21 22 21 22 21 22 19 18 22 21 21 21 19 19 18 19 22 21 18 17 17 15 12 12 10 4 4 5 8 6 12 8 8 10 9 9 5 15 12 14 17 22 26 38 42 38 38 45 48 50 53 56 57
45 45 43 44 43 43 46 46 45 43 43 41 39 31 26 18 16 24 22 26 24 32 32 29 30 31 30 25 25 28 26 27 24 22 21 19 21 22 21 21 20 18 20 22 19 20 17 16 17 16 17 20 20 20 18 18 16 12 11 8 7 7 2 6 2 6 6 8 9 11 6 9 8 8 21 19 18 24 31 40 44 42 43 49 52 54 56 57
45 45 44 43 43 44 45 46 46 46 43 41 32 27 20 18 22 22 23 26 29 31 30 32 30 29 25 27 30 28 29 22 25 21 19 18 20 21 21 20 21 20 20 19 20 21 16 16 16 17 17 19 20 20 19 18 16 14 9 9 9 8 14 1 12 7 8 8 11 11 11 15 9 24 29 40 38 36 42 38 41 43 47 50 52 54 56 57
43 42 44 43 44 46 45 45 46 45 41 36 28 23 20 22 21 28 26 34 33 30 30 30 29 27 24 25 28 27 29 27 23 23 22 18 19 21 22 22 21 20 19 19 20 17 18 17 15 16 15 18 19 20 19 19 16 15 8 9 7 14 14 19 18 24 21 11 7 15 13 12 16 17 41 47 46 47 48 46 44 46 49 52 54 55 56 57
41 42 41 43 41 44 45 45 44 42 40 34 27 22 25 27 27 28 32 30 31 32 30 24 24 25 24 23 25 24 26 29 26 24 21 20 19 20 23 23 22 21 20 18 19 17 17 16 14 15 13 17 19 20 19 19 17 12 10 9 14 14 13 17 6 14 7 6 11 16 8 8 7 8 41 47 44 50 49 49 49 51 52 52 54 55 56 57
40 40 42 42 39 45 46 45 43 41 38 31 25 28 28 27 32 31 34 33 33 33 29 27 26 29 25 24 23 24 24 25 23 23 20 22 21 21 23 22 22 21 21 21 18 18 18 13 12 14 14 16 18 20 18 18 14 14 12 13 7 9 9 17 14 10 8 7 7 14 15 11 6 10 33 39 42 48 49 50 50 51 51 52 54 55 57 57
41 40 36 39 42 46 46 45 42 37 34 28 27 27 31 30 32 34 35 35 35 32 29 29 28 28 27 25 26 27 27 21 21 23 21 20 21 22 23 22 21 20 21 21 20 22 22 14 13 14 13 13 16 17 17 17 14 14 14 9 12 13 15 12 13 18 11 7 13 6 13 10 12 10 14 19 42 48 49 50 50 50 51 53 53 55 55 56
39 37 35 41 42 46 45 43 38 36 32 26 27 28 31 30 33 35 37 36 32 32 30 30 31 29 29 28 28 24 26 26 19 22 24 22 19 22 21 23 20 19 20 20 19 23 18 25 11 12 13 13 14 16 15 17 16 15 15 11 10 16 15 11 19 9 10 12 7 7 11 14 20 21 20 15 37 48 50 51 51 52 52 53 54 55 56 56
39 37 36 42 43 44 42 38 34 32 30 31 32 31 31 30 33 35 35 37 36 37 34 33 32 29 29 29 28 30 26 27 25 22 21 21 18 20 20 21 21 18 19 19 18 21 21 20 14 13 10 11 13 15 14 16 17 16 16 14 9 10 10 6 8 10 9 9 13 10 5 19 27 35 28 34 43 46 50 52 52 52 53 54 55 56 56 56
36 31 34 40 44 43 38 33 32 36 33 30 29 31 30 35 33 34 35 36 37 36 38 36 35 33 32 31 30 29 28 26 28 29 27 19 19 17 19 19 20 18 18 20 19 20 24 25 19 15 12 11 11 13 14 15 16 14 15 13 11 13 17 8 6 10 10 8 14 16 11 16 34 38 45 47 48 46 50 51 51 52 53 53 54 55 56 57
34 33 38 43 45 40 38 33 33 32 30 30 32 32 33 33 33 34 35 36 35 37 36 35 34 33 33 32 31 31 28 27 28 28 29 23 19 17 18 19 20 18 18 20 17 19 26 24 17 11 10 11 11 12 13 12 13 9 13 12 12 11 12 11 13 21 10 16 11 11 12 15 33 40 47 48 48 49 51 52 52 52 53 54 55 56 57 57
35 35 37 42 44 40 36 28 28 29 30 31 32 31 33 33 34 34 34 35 36 35 35 34 35 36 33 34 33 31 31 26 29 29 27 30 26 27 17 18 19 17 17 22 19 29 20 23 15 11 10 9 11 11 11 10 11 11 12 13 11 11 12 22 22 24 12 14 10 9 8 9 37 46 49 48 49 49 50 52 53 52 54 54 55 56 57 57
36 37 37 38 42 39 32 32 31 29 30 31 30 29 30 33 36 34 34 34 37 37 36 35 35 36 32 34 33 33 32 31 30 28 31 30 31 32 25 17 19 18 18 21 25 24 21 27 19 11 10 9 9 10 11 11 10 13 11 9 9 10 14 20 11 15 8 20 12 8 8 21 28 49 50 50 50 51 51 52 53 53 54 54 55 56 56 57
33 27 31 32 37 36 38 35 33 32 31 31 29 30 32 30 32 34 36 35 37 37 38 36 37 38 36 36 34 32 29 29 29 28 28 29 33 35 20 17 18 17 25 30 30 24 24 32 24 20 11 11 11 14 12 13 12 10 8 8 8 9 11 18 25 14 8 20 15 11 13 19 23 41 49 50 51 50 51 52 52 53 54 55 55 56 57 57
35 29 30 28 31 34 32 31 32 31 30 32 28 31 31 31 32 32 35 33 36 35 36 37 35 34 34 35 33 33 33 31 32 31 29 30 34 34 37 18 18 21 30 28 32 28 27 22 25 28 22 14 12 11 12 11 10 10 7 9 7 9 17 21 17 15 29 19 11 25 33 24 18 39 48 49 51 52 52 53 53 54 55 55 56 56 55 58
28 31 33 35 30 28 29 29 31 31 31 31 31 33 31 30 31 30 33 36 36 34 35 37 35 34 34 35 34 32 33 31 32 30 30 34 34 35 31 26 16 24 27 22 26 32 27 23 25 26 23 19 15 12 10 10 10 10 9 11 12 11 19 21 21 24 28 14 9 26 36 29 26 39 47 50 51 52 53 54 55 55 55 56 56 56 57 58
34 33 33 35 30 30 31 31 32 31 30 30 33 32 30 30 30 32 33 32 33 32 35 31 33 33 34 36 36 34 34 31 30 30 35 35 35 35 25 22 18 16 21 26 34 38 25 21 26 28 25 23 18 15 12 10 10 9 12 13 13 18 18 20 21 26 22 22 31 30 37 35 35 47 49 51 52 53 54 55 55 55 55 55 55 55 57 58
31 30 31 34 33 32 31 32 31 30 29 31 30 30 30 30 30 31 33 33 30 31 36 33 33 34 34 36 36 34 35 35 33 32 36 36 36 36 37 36 24 17 17 25 28 34 27 22 33 29 23 23 26 20 13 12 12 11 12 12 15 21 18 17 23 30 32 28 36 39 37 38 42 45 51 52 52 53 55 54 54 56 56 56 55 55 56 58
36 37 36 31 29 30 31 31 30 29 29 31 30 30 30 30 30 32 32 35 33 32 35 33 34 35 35 36 36 36 38 37 37 37 37 38 35 36 37 37 38 23 17 29 26 30 28 24 30 27 19 20 23 18 14 12 14 13 15 16 16 21 21 24 20 30 24 20 38 40 34 29 43 51 52 51 53 54 54 54 55 56 56 56 55 55 56 58
36 36 36 35 29 32 29 30 30 29 27 30 31 30 30 30 31 32 31 34 36 36 35 34 35 35 35 36 36 37 39 40 40 40 40 39 39 38 38 38 38 39 39 27 33 21 27 25 21 21 18 20 25 19 17 18 18 14 19 20 23 22 23 26 27 33 29 33 32 22 15 33 47 51 51 51 53 53 53 54 55 57 57 56 56 56 56 58